Weather History for Glendive, MT

Change the Weather History Date:

Thursday, September 26, 2013

  Actual Average Record
Temperature  
Mean Temperature 46 °F -  
Max Temperature 51 °F 64 °F 87 °F (1997)
Min Temperature 42 °F 38 °F 32 °F (1996)
Degree Days  
Heating Degree Days 18    
Moisture  
Dew Point 42 °F    
Average Humidity 80    
Maximum Humidity 93    
Minimum Humidity 62    
Precipitation  
Precipitation 0.00 in - - ()
Sea Level Pressure  
Sea Level Pressure 29.78 in    
Wind  
Wind Speed 10 mph (West)    
Max Wind Speed 20 mph    
Max Gust Speed 26 mph    
Visibility 10 miles    
Events      
Averages and records for this station are not official NWS values.
T = Trace of Precipitation, MM = Missing Value Source: NWS Daily Summary

Daily Weather History Graph

Daily Weather History Graph

Search for Another Location

Airport:

Trip Planner

Search our weather history database for the weather conditions in past years. The results will help you decide how hot, cold, wet, or windy it might be!

Date:

Astronomy

Sep. 26, 2013 Rise Set
Actual Time 6:51 AM MDT 6:48 PM MDT
Civil Twilight 6:21 AM MDT 7:18 PM MDT
Nautical Twilight 5:45 AM MDT 7:54 PM MDT
Astronomical Twilight 5:09 AM MDT 8:30 PM MDT
Moon 11:29 PM MDT (9/26) 2:05 PM MDT (9/26)
Length of Visible Light 12h 57m
Length of Day
11h 56m
Waning Gibbous, 54% of the Moon is Illuminated
Sep 26
Waning Gibbous
Sep 26
Last Quarter
Oct 4
New
Oct 11
First Quarter
Oct 18
Full

Hourly Weather History & Observations

Time (MDT) Temp. Windchill Dew Point Humidity Pressure Visibility Wind Dir Wind Speed Gust Speed Precip Events Conditions
12:15 AM 50.0 °F - 46.4 °F 87% 29.65 in 10.0 mi NNW 9.2 mph - N/A   Overcast
12:35 AM 50.0 °F - 46.4 °F 87% 29.65 in 10.0 mi WSW 3.5 mph - N/A   Overcast
12:55 AM 48.2 °F - 46.4 °F 93% 29.62 in 10.0 mi NW 6.9 mph - N/A   Overcast
1:15 AM 48.2 °F - 46.4 °F 93% 29.63 in 10.0 mi NW 10.4 mph - N/A   Partly Cloudy
1:35 AM 48.2 °F - 46.4 °F 93% 29.64 in 10.0 mi NW 9.2 mph - N/A   Mostly Cloudy
1:55 AM 48.2 °F - 46.4 °F 93% 29.63 in 10.0 mi NNW 9.2 mph - N/A   Scattered Clouds
2:15 AM 48.2 °F - 46.4 °F 93% 29.63 in 10.0 mi NW 6.9 mph - N/A   Partly Cloudy
2:35 AM 48.2 °F - 46.4 °F 93% 29.63 in 10.0 mi NNW 4.6 mph - N/A   Partly Cloudy
2:55 AM 48.2 °F - 44.6 °F 87% 29.64 in 10.0 mi West 5.8 mph - N/A   Mostly Cloudy
3:15 AM 48.2 °F - 46.4 °F 93% 29.65 in 10.0 mi WNW 5.8 mph - N/A   Overcast
3:35 AM 48.2 °F - 46.4 °F 93% 29.65 in 10.0 mi WNW 6.9 mph - N/A   Overcast
3:55 AM 48.2 °F - 46.4 °F 93% 29.66 in 10.0 mi West 10.4 mph - N/A   Overcast
4:15 AM 48.2 °F - 46.4 °F 93% 29.65 in 10.0 mi WNW 9.2 mph - N/A   Overcast
4:35 AM 48.2 °F - 46.4 °F 93% 29.65 in 10.0 mi WNW 12.7 mph - N/A   Overcast
4:55 AM 48.2 °F - 46.4 °F 93% 29.65 in 10.0 mi WNW 12.7 mph - N/A   Overcast
5:55 AM 48.2 °F - 46.4 °F 93% 29.67 in 10.0 mi West 8.1 mph - N/A   Overcast
6:35 AM 48.2 °F - 46.4 °F 93% 29.67 in 10.0 mi West 10.4 mph - N/A   Overcast
6:55 AM 46.4 °F 42.9 °F 44.6 °F 93% 29.67 in 10.0 mi WNW 6.9 mph - N/A   Scattered Clouds
7:35 AM 48.2 °F - 46.4 °F 93% 29.70 in 10.0 mi West 12.7 mph - N/A   Overcast
8:15 AM 46.4 °F 41.5 °F 44.6 °F 93% 29.71 in 10.0 mi West 10.4 mph - N/A   Overcast
8:35 AM 46.4 °F 41.5 °F 44.6 °F 93% 29.71 in 10.0 mi West 10.4 mph - N/A   Overcast
8:55 AM 48.2 °F - 44.6 °F 87% 29.71 in 10.0 mi West 12.7 mph - N/A   Overcast
9:15 AM 50.0 °F - 42.8 °F 76% 29.72 in 10.0 mi West 13.8 mph - N/A   Overcast
9:35 AM 48.2 °F - 42.8 °F 82% 29.73 in 10.0 mi West 13.8 mph 20.7 mph N/A   Overcast
9:55 AM 48.2 °F - 42.8 °F 82% 29.73 in 10.0 mi West 13.8 mph - N/A   Overcast
10:15 AM 48.2 °F - 42.8 °F 82% 29.74 in 10.0 mi West 13.8 mph 18.4 mph N/A   Overcast
10:35 AM 48.2 °F - 41.0 °F 76% 29.75 in 10.0 mi West 12.7 mph 19.6 mph N/A   Overcast
10:55 AM 48.2 °F - 42.8 °F 82% 29.74 in 10.0 mi West 15.0 mph - N/A   Overcast
11:15 AM 50.0 °F - 42.8 °F 76% 29.75 in 10.0 mi West 15.0 mph 19.6 mph N/A   Overcast
11:35 AM 48.2 °F - 42.8 °F 82% 29.76 in 10.0 mi WSW 15.0 mph 20.7 mph N/A   Overcast
11:55 AM 50.0 °F - 41.0 °F 71% 29.76 in 10.0 mi WSW 17.3 mph 21.9 mph N/A   Overcast
12:15 PM 51.8 °F - 41.0 °F 67% 29.76 in 10.0 mi West 18.4 mph 24.2 mph N/A   Overcast
12:35 PM 50.0 °F - 41.0 °F 71% 29.77 in 10.0 mi West 16.1 mph 23.0 mph N/A   Overcast
12:55 PM 51.8 °F - 39.2 °F 62% 29.77 in 10.0 mi West 16.1 mph 24.2 mph N/A   Overcast
1:15 PM 51.8 °F - 39.2 °F 62% 29.78 in 10.0 mi WSW 18.4 mph 25.3 mph N/A   Overcast
1:35 PM 51.8 °F - 39.2 °F 62% 29.78 in 10.0 mi WSW 18.4 mph 26.5 mph N/A   Overcast
1:55 PM 51.8 °F - 39.2 °F 62% 29.79 in 10.0 mi WSW 18.4 mph 25.3 mph N/A   Overcast
2:15 PM 51.8 °F - 39.2 °F 62% 29.80 in 10.0 mi WSW 17.3 mph 24.2 mph N/A   Overcast
2:35 PM 51.8 °F - 39.2 °F 62% 29.80 in 10.0 mi WSW 16.1 mph - N/A   Overcast
2:55 PM 51.8 °F - 39.2 °F 62% 29.81 in 10.0 mi West 16.1 mph 23.0 mph N/A   Overcast
3:15 PM 51.8 °F - 39.2 °F 62% 29.82 in 10.0 mi West 15.0 mph 25.3 mph N/A   Overcast
3:35 PM 50.0 °F - 39.2 °F 66% 29.83 in 10.0 mi West 12.7 mph - N/A   Overcast
4:15 PM 48.2 °F - 39.2 °F 71% 29.84 in 10.0 mi West 12.7 mph 19.6 mph N/A   Overcast
4:55 PM 51.8 °F - 39.2 °F 62% 29.85 in 10.0 mi West 19.6 mph 25.3 mph N/A   Overcast
5:15 PM 48.2 °F - 39.2 °F 71% 29.86 in 10.0 mi West 16.1 mph - N/A   Overcast
5:35 PM 48.2 °F - 39.2 °F 71% 29.87 in 10.0 mi WNW 12.7 mph - N/A   Overcast
5:55 PM 48.2 °F - 39.2 °F 71% 29.88 in 10.0 mi WNW 9.2 mph - N/A   Overcast
6:15 PM 48.2 °F - 39.2 °F 71% 29.88 in 10.0 mi WNW 12.7 mph 17.3 mph N/A   Overcast
6:35 PM 48.2 °F - 39.2 °F 71% 29.88 in 10.0 mi WNW 11.5 mph 18.4 mph N/A   Overcast
6:55 PM 46.4 °F 41.9 °F 39.2 °F 76% 29.89 in 10.0 mi WNW 9.2 mph - N/A   Overcast
7:15 PM 46.4 °F 41.1 °F 39.2 °F 76% 29.88 in 10.0 mi WNW 11.5 mph - N/A   Overcast
7:35 PM 46.4 °F 41.5 °F 39.2 °F 76% 29.89 in 10.0 mi WNW 10.4 mph - N/A   Overcast
7:55 PM 46.4 °F 41.9 °F 39.2 °F 76% 29.91 in 10.0 mi West 9.2 mph - N/A   Overcast
8:15 PM 46.4 °F 41.9 °F 39.2 °F 76% 29.91 in 10.0 mi WNW 9.2 mph - N/A   Overcast
8:35 PM 46.4 °F 41.9 °F 39.2 °F 76% 29.90 in 10.0 mi WNW 9.2 mph - N/A   Overcast
8:55 PM 46.4 °F 42.4 °F 41.0 °F 81% 29.92 in 10.0 mi West 8.1 mph - N/A   Overcast
9:15 PM 46.4 °F 44.3 °F 41.0 °F 81% 29.92 in 10.0 mi West 4.6 mph - N/A   Overcast
9:35 PM 44.6 °F 42.2 °F 39.2 °F 81% 29.94 in 10.0 mi SSW 4.6 mph - N/A   Mostly Cloudy
10:15 PM 44.6 °F 43.1 °F 41.0 °F 87% 29.95 in 10.0 mi WSW 3.5 mph - N/A   Clear
10:35 PM 44.6 °F 42.2 °F 39.2 °F 81% 29.94 in 10.0 mi West 4.6 mph - N/A   Clear
10:55 PM 42.8 °F 38.6 °F 39.2 °F 87% 29.93 in 10.0 mi West 6.9 mph - N/A   Clear
11:15 PM 44.6 °F 42.2 °F 39.2 °F 81% 29.93 in 10.0 mi West 4.6 mph - N/A   Scattered Clouds
11:35 PM 44.6 °F 42.2 °F 41.0 °F 87% 29.95 in 10.0 mi SSW 4.6 mph - N/A   Mostly Cloudy
11:55 PM 44.6 °F 41.4 °F 41.0 °F 87% 29.97 in 10.0 mi SSW 5.8 mph - N/A   Mostly Cloudy